Location: Arnolds Mill
(42.3415°N, 73.5951°W)
Time: 10:11:44
(UTC+00:00)

BlueWalker 3 - Pass Details

Date: 22 June 2024
Orbit: 480 x 492 km, 53.2° (Epoch: 13 July)

Event Time Altitude Azimuth Distance (km) Brightness Sun altitude
Rises 02:49:31 0° 275° (W) 2,538 6.0 -18.0°
Reaches altitude 10° 02:52:05 10° 293° (WNW) 1,658 5.3 -18.2°
Maximum altitude 02:54:57 21° 343° (NNW) 1,143 4.6 -18.5°
Drops below altitude 10° 02:57:50 10° 34° (NNE) 1,659 4.9 -18.8°
Sets 03:00:25 0° 51° (NE) 2,539 5.7 -19.0°
